This demonstration page uses our WeatherBlox Daily Observations layout. Learn more.

Left ArrowRight Arrow

41.12389, -100.76542

Hourly Observations for June 26, 2022

Temp ( °F °C ) Dew Point ( °F °C ) Humidity (%) Winds ( mph kmh ) Pressure ( in mb ) Visibility ( mi km ) Precip ( " mm )
12:53 am 00:53 Clear 60 15.6 39 3.9 46 46 NNE 7 11 30.33 1027 10 16 0.00 0.00
1:53 am 01:53 Clear 61 16.1 39 3.9 44 44 N 10 17 30.32 1027 10 16 0.00 0.00
2:53 am 02:53 Clear 57 13.9 40 4.4 53 53 N 7 11 30.32 1027 10 16 0.00 0.00
3:53 am 03:53 Clear 51 10.6 41 5 69 69 W 6 9 30.32 1027 10 16 0.00 0.00
4:53 am 04:53 Clear 50 10 40 4.4 68 68 WSW 7 11 30.33 1027 10 16 0.00 0.00
5:53 am 05:53 Clear 50 10 40 4.4 68 68 SW 3 6 30.37 1028 10 16 0.00 0.00
6:53 am 06:53 Mostly Sunny 50 10 42 5.6 74 74 NW 3 6 30.40 1030 10 16 0.00 0.00
7:53 am 07:53 Mostly Sunny 55 12.8 43 6.1 64 64 SW 5 7 30.40 1030 10 16 0.00 0.00
8:53 am 08:53 Cloudy 60 15.6 41 5 50 50 Calm 30.42 1030 10 16 0.00 0.00
9:53 am 09:53 Cloudy 61 16.1 43 6.1 52 52 SSW 5 7 30.44 1031 10 16 0.00 0.00
10:53 am 10:53 Cloudy 63 17.2 42 5.6 47 47 SSW 3 6 30.46 1032 10 16 0.00 0.00
11:53 am 11:53 Cloudy 67 19.4 42 5.6 41 41 SW 5 7 30.45 1031 10 16 0.00 0.00
12:53 pm 12:53 Mostly Sunny 72 22.2 41 5 33 33 VRB 7 11 30.42 1030 10 16 0.00 0.00
1:53 pm 13:53 Sunny 75 23.9 41 5 29 29 VRB 7 11 30.39 1029 10 16 0.00 0.00
2:53 pm 14:53 Sunny 75 23.9 41 5 29 29 SSW 7 11 30.37 1028 10 16 0.00 0.00
3:53 pm 15:53 Sunny 78 25.6 41 5 27 27 undefined N/A 30.35 1028 10 16 0.00 0.00
4:53 pm 16:53 Sunny 78 25.6 42 5.6 28 28 W 7 11 30.32 1027 10 16 0.00 0.00
5:53 pm 17:53 Sunny 79 26.1 42 5.6 27 27 W 6 9 30.31 1027 10 16 0.00 0.00
6:53 pm 18:53 Partly Cloudy 76 24.4 41 5 29 29 SW 6 9 30.31 1027 10 16 0.00 0.00
7:53 pm 19:53 Cloudy 75 23.9 47 8.3 37 37 Calm 30.31 1026 10 16 0.00 0.00
8:53 pm 20:53 Mostly Cloudy 71 21.7 49 9.4 46 46 NNW 3 6 30.31 1026 10 16 0.00 0.00
9:53 pm 21:53 Mostly Cloudy 65 18.3 51 10.6 61 61 Calm 30.32 1027 10 16 0.00 0.00
10:53 pm 22:53 Partly Cloudy 60 15.6 47 8.3 62 62 E 5 7 30.34 1027 10 16 0.00 0.00
11:53 pm 23:53 Mostly Cloudy 61 16.1 47 8.3 60 60 ESE 7 11 30.33 1027 10 16 0.00 0.00

Powered by AerisWeather